Weather History for Little Falls, MN

Change the Weather History Date:

Thursday, September 19, 2013

  Actual Average Record
Temperature  
Mean Temperature 64 °F -  
Max Temperature 68 °F 71 °F 92 °F (1984)
Min Temperature 59 °F 48 °F 30 °F (1971)
Degree Days  
Heating Degree Days 2    
Growing Degree Days 14 (Base 50)    
Moisture  
Dew Point 61 °F    
Average Humidity 88    
Maximum Humidity 94    
Minimum Humidity 72    
Precipitation  
Precipitation 0.37 in - - ()
Sea Level Pressure  
Sea Level Pressure 29.73 in    
Wind  
Wind Speed 4 mph (WSW)    
Max Wind Speed 12 mph    
Max Gust Speed 22 mph    
Visibility 7 miles    
Events Rain    
Averages and records for this station are not official NWS values.
T = Trace of Precipitation, MM = Missing Value Source: NWS Daily Summary

Daily Weather History Graph

Daily Weather History Graph

Search for Another Location

Airport:

Trip Planner

Search our weather history database for the weather conditions in past years. The results will help you decide how hot, cold, wet, or windy it might be!

Date:

Astronomy

Sep. 19, 2013 Rise Set
Actual Time 7:00 AM CDT 7:20 PM CDT
Civil Twilight 6:31 AM CDT 7:50 PM CDT
Nautical Twilight 5:55 AM CDT 8:25 PM CDT
Astronomical Twilight 5:19 AM CDT 9:01 PM CDT
Moon 7:14 PM CDT (9/19) 7:13 AM CDT (9/19)
Length of Visible Light 13h 19m
Length of Day
12h 19m
Full, 100% of the Moon is Illuminated
Sep 19
Full
Sep 26
Last Quarter
Oct 4
New
Oct 11
First Quarter
Oct 18
Full

Hourly Weather History & Observations

Time (CDT) Temp. Dew Point Humidity Pressure Visibility Wind Dir Wind Speed Gust Speed Precip Events Conditions
12:15 AM 66.2 °F 64.4 °F 94% 29.67 in 2.5 mi SE 5.8 mph - N/A   Overcast
12:34 AM 66.2 °F 64.4 °F 94% 29.68 in 2.5 mi SE 5.8 mph - N/A   Overcast
12:54 AM 66.2 °F 64.4 °F 94% 29.71 in 2.5 mi Calm Calm - N/A   Overcast
1:15 AM 66.2 °F 64.4 °F 94% 29.71 in 2.0 mi Calm Calm - N/A   Mist
1:34 AM 66.2 °F 64.4 °F 94% 29.71 in 2.0 mi SE 3.5 mph - N/A   Mist
1:54 AM 66.2 °F 64.4 °F 94% 29.70 in 2.0 mi SE 3.5 mph - N/A   Mist
2:15 AM 68.0 °F 64.4 °F 88% 29.70 in 2.5 mi SE 4.6 mph - N/A   Mist
2:34 AM 68.0 °F 64.4 °F 88% 29.68 in 2.5 mi ESE 3.5 mph - N/A   Mist
2:54 AM 68.0 °F 64.4 °F 88% 29.71 in 2.5 mi WNW 4.6 mph - N/A   Overcast
3:14 AM 66.2 °F 64.4 °F 94% 29.71 in 2.0 mi Calm Calm - N/A Rain Light Rain
3:34 AM 66.2 °F 64.4 °F 94% 29.70 in 1.5 mi Calm Calm - N/A Rain Light Rain
3:55 AM 66.2 °F 64.4 °F 94% 29.67 in 1.8 mi ESE 6.9 mph - N/A   Light Drizzle
4:14 AM 66.2 °F 64.4 °F 94% 29.63 in 2.5 mi East 9.2 mph - N/A   Mist
4:34 AM 68.0 °F 64.4 °F 88% 29.63 in 4.0 mi SE 10.4 mph 20.7 mph N/A   Clear
4:55 AM 68.0 °F 64.4 °F 88% 29.64 in 3.0 mi Calm Calm - N/A   Mist
5:14 AM 66.2 °F 64.4 °F 94% 29.69 in 4.0 mi SSW 6.9 mph - N/A   Scattered Clouds
5:34 AM 66.2 °F 62.6 °F 88% 29.68 in 5.0 mi SE 3.5 mph - N/A   Clear
5:55 AM 64.4 °F 62.6 °F 94% 29.65 in 4.0 mi NE 3.5 mph - N/A Rain Light Rain
6:14 AM 64.4 °F 62.6 °F 94% 29.66 in 5.0 mi SSW 3.5 mph - N/A   Light Drizzle
6:34 AM 64.4 °F 62.6 °F 94% 29.68 in 4.0 mi Calm Calm - 0.01 in   Clear
6:55 AM 64.4 °F 62.6 °F 94% 29.68 in 3.0 mi Calm Calm - 0.01 in   Mist
7:14 AM 64.4 °F 62.6 °F 94% 29.66 in 3.0 mi ESE 5.8 mph - N/A   Mist
7:34 AM 64.4 °F 62.6 °F 94% 29.68 in 4.0 mi SSW 4.6 mph - N/A   Clear
7:55 AM 64.4 °F 62.6 °F 94% 29.65 in 4.0 mi SE 3.5 mph - N/A   Clear
8:14 AM 66.2 °F 64.4 °F 94% 29.63 in 7.0 mi East 5.8 mph - N/A   Clear
8:34 AM 68.0 °F 64.4 °F 88% 29.64 in 5.0 mi SE 3.5 mph - N/A   Clear
8:55 AM 66.2 °F 64.4 °F 94% 29.67 in 5.0 mi West 3.5 mph - N/A Rain Light Rain
9:14 AM 66.2 °F 64.4 °F 94% 29.68 in 5.0 mi Calm Calm - N/A   Light Drizzle
9:34 AM 66.2 °F 64.4 °F 94% 29.70 in 4.0 mi Calm Calm - N/A Rain Light Rain
9:55 AM 66.2 °F 62.6 °F 88% 29.68 in 7.0 mi Calm Calm - N/A Rain Light Rain
10:14 AM 64.4 °F 62.6 °F 94% 29.70 in 5.0 mi SW 3.5 mph - 0.01 in Rain Light Rain
10:34 AM 64.4 °F 62.6 °F 94% 29.78 in 10.0 mi SW 11.5 mph 21.9 mph 0.02 in Rain Rain
10:55 AM 64.4 °F 62.6 °F 94% 29.76 in 5.0 mi SSW 3.5 mph - 0.07 in Rain Rain
11:14 AM 64.4 °F 62.6 °F 94% 29.79 in 10.0 mi South 9.2 mph - 0.03 in Rain Rain
11:35 AM 64.4 °F 60.8 °F 88% 29.78 in 5.0 mi SW 4.6 mph - 0.10 in Rain Heavy Rain
11:54 AM 64.4 °F 60.8 °F 88% 29.74 in 5.0 mi NW 4.6 mph - 0.20 in Rain Rain
12:14 PM 62.6 °F 60.8 °F 94% 29.71 in 7.0 mi NW 4.6 mph - 0.05 in Rain Light Rain
12:35 PM 62.6 °F 60.8 °F 94% 29.68 in 7.0 mi North 3.5 mph - 0.07 in Rain Light Rain
12:54 PM 62.6 °F 60.8 °F 94% 29.71 in 7.0 mi WSW 5.8 mph - 0.08 in Rain Light Rain
1:14 PM 64.4 °F 60.8 °F 88% 29.72 in 10.0 mi West 5.8 mph - N/A Rain Light Rain
1:35 PM 64.4 °F 62.6 °F 94% 29.70 in 10.0 mi WNW 5.8 mph - 0.01 in   Scattered Clouds
1:54 PM 64.4 °F 62.6 °F 94% - 10.0 mi West 8.1 mph - 0.01 in   Clear
2:14 PM 68.0 °F 64.4 °F 88% 29.70 in 10.0 mi WNW 5.8 mph - N/A   Mostly Cloudy
2:35 PM 68.0 °F 62.6 °F 83% 29.72 in 10.0 mi West 10.4 mph 20.7 mph N/A   Mostly Cloudy
2:54 PM 68.0 °F 62.6 °F 83% 29.73 in 10.0 mi WNW 9.2 mph - N/A   Mostly Cloudy
3:14 PM 68.0 °F 62.6 °F 83% 29.74 in 10.0 mi West 9.2 mph - N/A   Overcast
3:35 PM 68.0 °F 62.6 °F 83% 29.75 in 10.0 mi West 10.4 mph - N/A   Overcast
3:54 PM 66.2 °F 62.6 °F 88% 29.75 in 7.0 mi West 10.4 mph - N/A   Overcast
4:14 PM 66.2 °F 60.8 °F 83% 29.75 in 7.0 mi West 8.1 mph - N/A   Overcast
4:35 PM 66.2 °F 60.8 °F 83% 29.74 in 7.0 mi West 8.1 mph - N/A   Overcast
4:54 PM 64.4 °F 60.8 °F 88% 29.74 in 7.0 mi WNW 9.2 mph - N/A   Overcast
5:14 PM 64.4 °F 60.8 °F 88% 29.75 in 10.0 mi WNW 4.6 mph - N/A   Overcast
5:35 PM 66.2 °F 60.8 °F 83% 29.76 in 10.0 mi WNW 3.5 mph - N/A   Mostly Cloudy
5:54 PM 68.0 °F 60.8 °F 78% 29.77 in 10.0 mi NW 3.5 mph - N/A   Mostly Cloudy
6:15 PM 68.0 °F 60.8 °F 78% 29.77 in 10.0 mi WNW 3.5 mph - N/A   Scattered Clouds
6:34 PM 66.2 °F 60.8 °F 83% 29.77 in 10.0 mi Calm Calm - N/A   Scattered Clouds
6:54 PM 66.2 °F 60.8 °F 83% 29.78 in 10.0 mi Calm Calm - N/A   Scattered Clouds
7:15 PM 64.4 °F 59.0 °F 83% 29.79 in 10.0 mi West 5.8 mph - N/A   Clear
7:34 PM 64.4 °F 57.2 °F 77% 29.79 in 10.0 mi WNW 4.6 mph - N/A   Clear
7:54 PM 62.6 °F 57.2 °F 82% 29.79 in 10.0 mi Calm Calm - N/A   Clear
8:15 PM 60.8 °F 57.2 °F 88% 29.79 in 10.0 mi Calm Calm - N/A   Clear
8:34 PM 59.0 °F 55.4 °F 88% 29.80 in 10.0 mi Calm Calm - N/A   Clear
8:54 PM 59.0 °F 55.4 °F 88% 29.80 in 10.0 mi Calm Calm - N/A   Clear
9:15 PM 59.0 °F 55.4 °F 88% 29.80 in 10.0 mi Calm Calm - N/A   Scattered Clouds
9:34 PM 59.0 °F 55.4 °F 88% 29.79 in 10.0 mi Calm Calm - N/A   Mostly Cloudy
9:54 PM 59.0 °F 55.4 °F 88% 29.79 in 10.0 mi West 3.5 mph - N/A   Scattered Clouds
10:15 PM 59.0 °F 53.6 °F 82% 29.79 in 10.0 mi West 6.9 mph - N/A   Scattered Clouds
10:34 PM 59.0 °F 51.8 °F 77% 29.80 in 10.0 mi West 8.1 mph - N/A   Clear
10:54 PM 59.0 °F 51.8 °F 77% 29.80 in 10.0 mi West 8.1 mph - N/A   Clear
11:15 PM 59.0 °F 50.0 °F 72% 29.81 in 10.0 mi West 8.1 mph - N/A   Clear
11:34 PM 59.0 °F 50.0 °F 72% 29.82 in 10.0 mi West 8.1 mph - N/A   Clear
11:54 PM 59.0 °F 50.0 °F 72% 29.80 in 10.0 mi WNW 6.9 mph - N/A   Clear